| time (UTC) | temp F | wind direction | speed knots | gust knots | rain 1hr in | rain 24hr in | rain mn in | humidity % | barometer mb |
| 20260831072511 | 72 | 137 | 0.9 | 1.7 | 0.00 | 0.00 | 0.00 | 82 | 1018.0 |
| 20260831072004 | 72 | 137 | 0.9 | 2.6 | 0.00 | 0.00 | 0.00 | 82 | 1018.0 |
| 20260831071505 | 72 | 137 | 1.7 | 2.6 | 0.00 | 0.00 | 0.00 | 83 | 1018.0 |
| 20260831071002 | 72 | 139 | 1.7 | 2.6 | 0.00 | 0.00 | 0.00 | 83 | 1018.0 |
| 20260831070503 | 72 | 136 | 0.9 | 2.6 | 0.00 | 0.00 | 0.00 | 83 | 1018.0 |
| 20260831070008 | 72 | 142 | 1.7 | 2.6 | 0.00 | 0.00 | 0.00 | 83 | 1017.9 |
| 20260831065505 | 72 | 139 | 1.7 | 2.6 | 0.00 | 0.00 | 0.00 | 83 | 1018.0 |
| 20260831065004 | 72 | 139 | 0.9 | 2.6 | 0.00 | 0.00 | 0.00 | 83 | 1018.1 |
| 20260831064513 | 72 | 139 | 1.7 | 2.6 | 0.00 | 0.00 | 0.00 | 82 | 1018.1 |
| 20260831064007 | 72 | 139 | 0.9 | 2.6 | 0.00 | 0.00 | 0.00 | 82 | 1018.3 |
| 20260831063508 | 73 | 139 | 0.9 | 3.5 | 0.00 | 0.00 | 0.00 | 81 | 1018.3 |
| 20260831063018 | 73 | 137 | 1.7 | 3.5 | 0.00 | 0.00 | 0.00 | 81 | 1018.3 |
| 20260831062512 | 73 | 138 | 1.7 | 2.6 | 0.00 | 0.00 | 0.00 | 81 | 1018.4 |
| 20260831062011 | 73 | 139 | 1.7 | 2.6 | 0.00 | 0.00 | 0.00 | 81 | 1018.5 |
| 20260831061523 | 73 | 147 | 1.7 | 2.6 | 0.00 | 0.00 | 0.00 | 81 | 1018.5 |
| 20260831061004 | 73 | 141 | 1.7 | 2.6 | 0.00 | 0.00 | 0.00 | 81 | 1018.5 |
| 20260831060503 | 73 | 135 | 0.9 | 2.6 | 0.00 | 0.00 | 0.00 | 81 | 1018.5 |
| 20260831060005 | 73 | 140 | 0.9 | 1.7 | 0.00 | 0.00 | 0.00 | 80 | 1018.4 |
| 20260831055505 | 73 | 145 | 0.9 | 1.7 | 0.00 | 0.00 | 0.00 | 81 | 1018.5 |
| 20260831055003 | 73 | 145 | 0.9 | 1.7 | 0.00 | 0.00 | 0.00 | 81 | 1018.5 |
| 20260831054511 | 73 | 157 | 0.9 | 2.6 | 0.00 | 0.00 | 0.00 | 80 | 1018.5 |
| 20260831054004 | 73 | 157 | 0.9 | 2.6 | 0.00 | 0.00 | 0.00 | 81 | 1018.4 |
| 20260831053508 | 73 | 140 | 1.7 | 3.5 | 0.00 | 0.00 | 0.00 | 81 | 1018.5 |
| 20260831053014 | 73 | 134 | 1.7 | 3.5 | 0.00 | 0.00 | 0.00 | 81 | 1018.5 |
| 20260831052508 | 73 | 134 | 2.6 | 2.6 | 0.00 | 0.00 | 0.00 | 81 | 1018.5 |
| 20260831052011 | 73 | 140 | 1.7 | 2.6 | 0.00 | 0.00 | 0.00 | 81 | 1018.5 |
| 20260831051535 | 73 | 139 | 1.7 | 3.5 | 0.00 | 0.00 | 0.00 | 81 | 1018.5 |
| 20260831051013 | 73 | 136 | 2.6 | 3.5 | 0.00 | 0.00 | 0.00 | 81 | 1018.4 |
| 20260831050514 | 73 | 140 | 2.6 | 3.5 | 0.00 | 0.00 | 0.00 | 81 | 1018.4 |
| 20260831050005 | 73 | 139 | 1.7 | 2.6 | 0.00 | 0.00 | 0.00 | 82 | 1018.4 |
| 20260831045507 | 73 | 139 | 1.7 | 1.7 | 0.00 | 0.00 | 0.00 | 81 | 1018.5 |
| 20260831045003 | 73 | 144 | 0.9 | 1.7 | 0.00 | 0.00 | 0.00 | 82 | 1018.5 |
| 20260831044506 | 73 | 137 | 0.9 | 2.6 | 0.00 | 0.00 | 0.00 | 81 | 1018.5 |
| 20260831044005 | 73 | 137 | 1.7 | 2.6 | 0.00 | 0.00 | 0.00 | 82 | 1018.5 |
| 20260831043502 | 73 | 140 | 1.7 | 2.6 | 0.00 | 0.00 | 0.00 | 82 | 1018.3 |
| 20260831043016 | 73 | 137 | 1.7 | 2.6 | 0.00 | 0.00 | 0.00 | 82 | 1018.3 |
| 20260831042511 | 73 | 140 | 1.7 | 2.6 | 0.00 | 0.00 | 0.00 | 82 | 1018.3 |
| 20260831042011 | 73 | 153 | 0.9 | 2.6 | 0.00 | 0.00 | 0.00 | 82 | 1018.2 |
| 20260831041523 | 73 | 179 | 0.0 | 1.7 | 0.00 | 0.00 | 0.00 | 83 | 1018.2 |
| 20260831041013 | 73 | 179 | 0.9 | 0.9 | 0.00 | 0.00 | 0.00 | 83 | 1018.1 |
| 20260831040514 | 73 | 189 | 0.0 | 1.7 | 0.00 | 0.00 | 0.00 | 83 | 1018.2 |
| 20260831040028 | 73 | 189 | 0.0 | 1.7 | 0.00 | 0.00 | 0.00 | 82 | 1018.1 |
| 20260831035516 | 73 | 189 | 0.0 | 2.6 | 0.00 | 0.00 | 0.00 | 82 | 1018.1 |
| 20260831035005 | 73 | 147 | 1.7 | 3.5 | 0.00 | 0.00 | 0.00 | 82 | 1018.0 |
| 20260831034507 | 73 | 200 | 0.9 | 3.5 | 0.00 | 0.00 | 0.00 | 83 | 1018.2 |
| 20260831034005 | 73 | 190 | 0.9 | 2.6 | 0.00 | 0.00 | 0.00 | 83 | 1018.1 |
| 20260831033505 | 73 | 176 | 0.9 | 1.7 | 0.00 | 0.00 | 0.00 | 83 | 1018.1 |
| 20260831033017 | 73 | 171 | 0.9 | 3.5 | 0.00 | 0.00 | 0.00 | 83 | 1018.2 |
| 20260831032507 | 73 | 188 | 0.9 | 3.5 | 0.00 | 0.00 | 0.00 | 83 | 1018.2 |
| 20260831032007 | 74 | 190 | 1.7 | 3.5 | 0.00 | 0.00 | 0.00 | 82 | 1018.3 |
| 20260831031516 | 74 | 165 | 0.9 | 1.7 | 0.00 | 0.00 | 0.00 | 80 | 1018.3 |
| 20260831031013 | 74 | 155 | 0.9 | 2.6 | 0.00 | 0.00 | 0.00 | 80 | 1018.3 |
| 20260831030514 | 74 | 158 | 0.0 | 2.6 | 0.00 | 0.00 | 0.00 | 80 | 1018.4 |
| 20260831030026 | 74 | 167 | 0.0 | 3.5 | 0.00 | 0.00 | 0.00 | 80 | 1018.4 |
| 20260831025511 | 74 | 148 | 1.7 | 3.5 | 0.00 | 0.00 | 0.00 | 81 | 1018.4 |
| 20260831025015 | 74 | 140 | 1.7 | 5.2 | 0.00 | 0.00 | 0.00 | 81 | 1018.5 |
| 20260831024530 | 74 | 150 | 2.6 | 4.3 | 0.00 | 0.00 | 0.00 | 82 | 1018.4 |
| 20260831024003 | 74 | 134 | 1.7 | 2.6 | 0.00 | 0.00 | 0.00 | 82 | 1018.4 |
| 20260831023505 | 73 | 146 | 1.7 | 2.6 | 0.00 | 0.00 | 0.00 | 83 | 1018.4 |
| 20260831023011 | 73 | 142 | 1.7 | 2.6 | 0.00 | 0.00 | 0.00 | 84 | 1018.4 |
| 20260831022506 | 73 | 141 | 0.9 | 1.7 | 0.00 | 0.00 | 0.00 | 84 | 1018.5 |
| 20260831022007 | 73 | 144 | 0.0 | 0.9 | 0.00 | 0.00 | 0.00 | 85 | 1018.5 |
| 20260831021514 | 73 | 144 | 0.0 | 0.9 | 0.00 | 0.00 | 0.00 | 85 | 1018.6 |
| 20260831021014 | 73 | 144 | 0.9 | 0.9 | 0.00 | 0.00 | 0.00 | 85 | 1018.6 |
| 20260831020510 | 73 | 144 | 0.9 | 1.7 | 0.00 | 0.00 | 0.00 | 85 | 1018.5 |
| 20260831020020 | 73 | 144 | 0.9 | 1.7 | 0.00 | 0.00 | 0.00 | 85 | 1018.6 |
| 20260831015513 | 73 | 144 | 0.9 | 1.7 | 0.00 | 0.00 | 0.00 | 85 | 1018.6 |
| 20260831015014 | 73 | 144 | 0.9 | 1.7 | 0.00 | 0.00 | 0.00 | 85 | 1018.5 |
| 20260831014526 | 73 | 140 | 0.9 | 2.6 | 0.00 | 0.00 | 0.00 | 86 | 1018.4 |
| 20260831014015 | 73 | 139 | 1.7 | 3.5 | 0.00 | 0.00 | 0.00 | 86 | 1018.4 |
| 20260831013517 | 73 | 142 | 1.7 | 3.5 | 0.00 | 0.00 | 0.00 | 86 | 1018.3 |
| 20260831013008 | 73 | 138 | 2.6 | 2.6 | 0.00 | 0.00 | 0.00 | 85 | 1018.3 |
| 20260831012503 | 73 | 142 | 0.9 | 1.7 | 0.00 | 0.00 | 0.00 | 85 | 1018.3 |
| 20260831012002 | 73 | 142 | 0.9 | 1.7 | 0.00 | 0.00 | 0.00 | 86 | 1018.3 |
| 20260831011512 | 74 | 142 | 0.0 | 1.7 | 0.00 | 0.00 | 0.00 | 85 | 1018.3 |
| 20260831011007 | 74 | 142 | 0.0 | 1.7 | 0.00 | 0.00 | 0.00 | 85 | 1018.2 |
| 20260831010508 | 74 | 142 | 0.0 | 0.9 | 0.00 | 0.00 | 0.00 | 85 | 1018.1 |
| 20260831010017 | 74 | 142 | 0.9 | 0.9 | 0.00 | 0.00 | 0.00 | 85 | 1018.0 |
| 20260831005512 | 74 | 142 | 0.9 | 0.9 | 0.00 | 0.00 | 0.00 | 85 | 1018.1 |
| 20260831005012 | 74 | 142 | 0.9 | 0.9 | 0.00 | 0.00 | 0.00 | 85 | 1018.1 |
| 20260831004529 | 74 | 142 | 0.9 | 1.7 | 0.00 | 0.00 | 0.00 | 86 | 1018.1 |
| 20260831004014 | 74 | 142 | 0.9 | 1.7 | 0.00 | 0.00 | 0.00 | 86 | 1018.0 |
| 20260831003514 | 74 | 146 | 1.7 | 1.7 | 0.00 | 0.00 | 0.00 | 86 | 1018.1 |
| 20260831003036 | 74 | 163 | 0.9 | 1.7 | 0.00 | 0.00 | 0.00 | 1018.0 | |
| 20260831002514 | 75 | 163 | 0.9 | 2.6 | 0.00 | 0.00 | 0.00 | 84 | 1018.0 |
| 20260831002003 | 75 | 167 | 0.9 | 2.6 | 0.00 | 0.00 | 0.00 | 84 | 1017.9 |
| 20260831001514 | 76 | 167 | 0.0 | 0.9 | 0.00 | 0.00 | 0.00 | 84 | 1018.0 |
| 20260831001010 | 76 | 167 | 0.9 | 0.9 | 0.00 | 0.00 | 0.00 | 82 | 1018.1 |
| 20260831000507 | 77 | 167 | 0.9 | 2.6 | 0.00 | 0.00 | 0.00 | 80 | 1018.2 |
| 20260831000019 | 77 | 167 | 0.9 | 2.6 | 0.00 | 0.00 | 0.00 | 80 | 1018.2 |
| 20260830235510 | 78 | 259 | 0.0 | 1.7 | 0.00 | 0.00 | 0.00 | 79 | 1018.3 |
| 20260830235013 | 78 | 284 | 0.0 | 0.0 | 0.00 | 0.00 | 0.00 | 76 | 1018.4 |
| 20260830234535 | 79 | 284 | 0.0 | 0.0 | 0.00 | 0.00 | 0.00 | 76 | 1018.5 |
| 20260830234013 | 79 | 284 | 0.0 | 0.0 | 0.00 | 0.00 | 0.00 | 76 | 1018.4 |
| 20260830233515 | 80 | 284 | 0.0 | 0.0 | 0.00 | 0.00 | 0.00 | 77 | 1018.4 |
| 20260830233028 | 80 | 284 | 0.0 | 0.0 | 0.00 | 0.00 | 0.00 | 74 | 1018.4 |
| 20260830232516 | 80 | 284 | 0.0 | 0.9 | 0.00 | 0.00 | 0.00 | 72 | 1018.4 |
| 20260830232015 | 81 | 284 | 0.0 | 0.9 | 0.00 | 0.00 | 0.00 | 70 | 1018.4 |
| 20260830231532 | 81 | 284 | 0.0 | 1.7 | 0.00 | 0.00 | 0.00 | 69 | 1018.4 |
| 20260830231017 | 81 | 284 | 0.0 | 1.7 | 0.00 | 0.00 | 0.00 | 69 | 1018.5 |
| 20260830230507 | 81 | 284 | 0.0 | 1.7 | 0.00 | 0.00 | 0.00 | 70 | 1018.5 |
| 20260830230015 | 82 | 284 | 0.0 | 1.7 | 0.00 | 0.00 | 0.00 | 68 | 1018.5 |
| 20260830225508 | 82 | 200 | 0.0 | 1.7 | 0.00 | 0.00 | 0.00 | 68 | 1018.5 |
| 20260830225009 | 82 | 311 | 0.0 | 1.7 | 0.00 | 0.00 | 0.00 | 68 | 1018.5 |
| 20260830224519 | 82 | 323 | 0.9 | 1.7 | 0.00 | 0.00 | 0.00 | 66 | 1018.5 |
| 20260830224011 | 83 | 242 | 0.0 | 1.7 | 0.00 | 0.00 | 0.00 | 67 | 1018.4 |
| 20260830223516 | 83 | 235 | 0.0 | 1.7 | 0.00 | 0.00 | 0.00 | 66 | 1018.4 |
| 20260830223026 | 83 | 249 | 0.9 | 1.7 | 0.00 | 0.00 | 0.00 | 65 | 1018.4 |
| 20260830222515 | 83 | 219 | 0.9 | 2.6 | 0.00 | 0.00 | 0.00 | 67 | 1018.3 |
| 20260830222015 | 82 | 197 | 0.9 | 2.6 | 0.00 | 0.00 | 0.00 | 68 | 1018.4 |
| 20260830221538 | 82 | 218 | 0.9 | 2.6 | 0.00 | 0.00 | 0.00 | 66 | 1018.1 |
| 20260830221016 | 82 | 188 | 0.9 | 2.6 | 0.00 | 0.00 | 0.00 | 66 | 1018.1 |
| 20260830220517 | 82 | 200 | 0.0 | 4.3 | 0.00 | 0.00 | 0.00 | 67 | 1018.2 |
| 20260830220033 | 82 | 208 | 1.7 | 4.3 | 0.00 | 0.00 | 0.00 | 65 | 1018.0 |
| 20260830215507 | 82 | 200 | 1.7 | 4.3 | 0.00 | 0.00 | 0.00 | 65 | 1018.1 |
| 20260830215008 | 82 | 200 | 2.6 | 5.2 | 0.00 | 0.00 | 0.00 | 64 | 1018.1 |
| 20260830214518 | 83 | 221 | 0.9 | 5.2 | 0.00 | 0.00 | 0.00 | 65 | 1018.0 |
| 20260830214011 | 83 | 200 | 1.7 | 5.2 | 0.00 | 0.00 | 0.00 | 63 | 1017.9 |
| 20260830213511 | 83 | 157 | 2.6 | 7.0 | 0.00 | 0.00 | 0.00 | 65 | 1017.9 |
| 20260830213032 | 83 | 243 | 3.5 | 7.0 | 0.00 | 0.00 | 0.00 | 63 | 1017.8 |
| 20260830212512 | 83 | 221 | 2.6 | 6.1 | 0.00 | 0.00 | 0.00 | 64 | 1017.9 |
| 20260830212012 | 83 | 179 | 1.7 | 6.1 | 0.00 | 0.00 | 0.00 | 66 | 1017.9 |
| 20260830211532 | 83 | 242 | 2.6 | 6.1 | 0.00 | 0.00 | 0.00 | 64 | 1017.9 |
| 20260830211020 | 83 | 202 | 2.6 | 6.1 | 0.00 | 0.00 | 0.00 | 64 | 1017.8 |
| 20260830210516 | 83 | 240 | 1.7 | 5.2 | 0.00 | 0.00 | 0.00 | 65 | 1017.7 |
| 20260830210035 | 83 | 232 | 2.6 | 6.1 | 0.00 | 0.00 | 0.00 | 64 | 1017.8 |
| 20260830205516 | 83 | 242 | 3.5 | 6.1 | 0.00 | 0.00 | 0.00 | 62 | 1018.0 |
| 20260830205017 | 82 | 215 | 1.7 | 8.7 | 0.00 | 0.00 | 0.00 | 64 | 1018.0 |
| 20260830204516 | 83 | 209 | 3.5 | 8.7 | 0.00 | 0.00 | 0.00 | 62 | 1018.1 |
| 20260830204009 | 83 | 237 | 5.2 | 10.4 | 0.00 | 0.00 | 0.00 | 62 | 1018.2 |
| 20260830203510 | 83 | 248 | 4.3 | 10.4 | 0.00 | 0.00 | 0.00 | 61 | 1018.1 |
| 20260830203025 | 83 | 205 | 3.5 | 7.8 | 0.00 | 0.00 | 0.00 | 64 | 1018.0 |
| 20260830202513 | 83 | 204 | 4.3 | 7.8 | 0.00 | 0.00 | 0.00 | 61 | 1018.0 |
| 20260830202012 | 83 | 137 | 2.6 | 9.6 | 0.00 | 0.00 | 0.00 | 61 | 1018.1 |
| 20260830201527 | 83 | 168 | 3.5 | 9.6 | 0.00 | 0.00 | 0.00 | 63 | 1018.0 |
| 20260830201013 | 83 | 184 | 3.5 | 10.4 | 0.00 | 0.00 | 0.00 | 63 | 1018.1 |
| 20260830200505 | 83 | 161 | 6.1 | 10.4 | 0.00 | 0.00 | 0.00 | 62 | 1017.9 |
| 20260830200009 | 83 | 238 | 4.3 | 7.0 | 0.00 | 0.00 | 0.00 | 68 | 1018.0 |
| 20260830195506 | 82 | 193 | 3.5 | 7.8 | 0.00 | 0.00 | 0.00 | 67 | 1018.2 |
| 20260830195005 | 82 | 208 | 2.6 | 8.7 | 0.00 | 0.00 | 0.00 | 70 | 1018.2 |
| 20260830194514 | 81 | 128 | 4.3 | 8.7 | 0.00 | 0.00 | 0.00 | 69 | 1018.2 |
| 20260830194007 | 81 | 184 | 2.6 | 9.6 | 0.00 | 0.00 | 0.00 | 70 | 1018.3 |
| 20260830193509 | 80 | 155 | 2.6 | 9.6 | 0.00 | 0.00 | 0.00 | 73 | 1018.1 |
| 20260830193018 | 80 | 209 | 2.6 | 8.7 | 0.00 | 0.00 | 0.00 | 76 | 1018.3 |
| 20260830192511 | 78 | 163 | 3.5 | 8.7 | 0.00 | 0.00 | 0.00 | 78 | 1018.2 |
| 20260830192012 | 77 | 133 | 3.5 | 7.8 | 0.00 | 0.00 | 0.00 | 80 | 1017.9 |
| 20260830191531 | 77 | 150 | 2.6 | 7.0 | 0.00 | 0.00 | 0.00 | 80 | 1017.9 |
| 20260830191013 | 76 | 142 | 3.5 | 6.1 | 0.00 | 0.00 | 0.00 | 80 | 1018.2 |
| 20260830190513 | 76 | 142 | 1.7 | 3.5 | 0.00 | 0.00 | 0.00 | 82 | 1018.6 |
| 20260830190035 | 76 | 142 | 1.7 | 2.6 | 0.00 | 0.00 | 0.00 | 81 | 1018.8 |
| 20260830185505 | 75 | 142 | 1.7 | 2.6 | 0.00 | 0.00 | 0.00 | 81 | 1019.0 |
| 20260830185004 | 75 | 143 | 0.9 | 4.3 | 0.00 | 0.00 | 0.00 | 83 | 1019.1 |
| 20260830184509 | 75 | 127 | 1.7 | 4.3 | 0.00 | 0.00 | 0.00 | 82 | 1019.1 |
| 20260830184003 | 75 | 132 | 1.7 | 4.3 | 0.00 | 0.00 | 0.00 | 81 | 1019.1 |
| 20260830183506 | 74 | 135 | 1.7 | 5.2 | 0.00 | 0.00 | 0.00 | 83 | 1019.1 |
| 20260830183015 | 74 | 145 | 2.6 | 5.2 | 0.00 | 0.00 | 0.00 | 83 | 1019.1 |
| 20260830182511 | 75 | 125 | 2.6 | 5.2 | 0.00 | 0.00 | 0.00 | 81 | 1019.3 |
| 20260830182012 | 75 | 123 | 3.5 | 5.2 | 0.00 | 0.00 | 0.00 | 79 | 1019.5 |
| 20260830181524 | 76 | 153 | 1.7 | 2.6 | 0.00 | 0.00 | 0.00 | 78 | 1019.8 |
| 20260830181018 | 76 | 142 | 1.7 | 2.6 | 0.00 | 0.00 | 0.00 | 77 | 1020.1 |
| 20260830180516 | 76 | 146 | 1.7 | 2.6 | 0.00 | 0.00 | 0.00 | 77 | 1020.3 |
| 20260830180031 | 77 | 150 | 0.9 | 3.5 | 0.00 | 0.00 | 0.00 | 76 | 1020.5 |
| 20260830175514 | 77 | 148 | 0.9 | 3.5 | 0.00 | 0.00 | 0.00 | 76 | 1020.6 |
| 20260830175014 | 77 | 154 | 0.9 | 2.6 | 0.00 | 0.00 | 0.00 | 75 | 1020.8 |
| 20260830174509 | 77 | 160 | 0.9 | 2.6 | 0.00 | 0.00 | 0.00 | 74 | 1020.7 |
| 20260830174003 | 77 | 215 | 1.7 | 2.6 | 0.00 | 0.00 | 0.00 | 75 | 1020.9 |
| 20260830173507 | 77 | 142 | 0.9 | 2.6 | 0.00 | 0.00 | 0.00 | 72 | 1020.9 |
| 20260830173015 | 77 | 148 | 0.9 | 2.6 | 0.00 | 0.00 | 0.00 | 73 | 1021.0 |
| 20260830172509 | 77 | 136 | 1.7 | 1.7 | 0.00 | 0.00 | 0.00 | 72 | 1021.2 |
| 20260830172012 | 77 | 136 | 0.9 | 1.7 | 0.00 | 0.00 | 0.00 | 73 | 1021.3 |
| 20260830171523 | 77 | 70 | 0.9 | 1.7 | 0.00 | 0.00 | 0.00 | 71 | 1021.5 |
| 20260830171012 | 77 | 70 | 0.0 | 1.7 | 0.00 | 0.00 | 0.00 | 73 | 1021.6 |
| 20260830170513 | 77 | 70 | 0.0 | 1.7 | 0.00 | 0.00 | 0.00 | 72 | 1021.6 |
| 20260830170040 | 78 | 70 | 0.9 | 1.7 | 0.00 | 0.00 | 0.00 | 72 | 1021.5 |
| 20260830165512 | 78 | 311 | 0.0 | 1.7 | 0.00 | 0.00 | 0.00 | 73 | 1021.6 |
| 20260830165018 | 78 | 311 | 0.0 | 1.7 | 0.00 | 0.00 | 0.00 | 73 | 1021.6 |
| 20260830164530 | 78 | 311 | 0.0 | 0.9 | 0.00 | 0.00 | 0.00 | 74 | 1021.6 |
| 20260830164020 | 78 | 311 | 0.0 | 0.9 | 0.00 | 0.00 | 0.00 | 73 | 1021.6 |
| 20260830163503 | 77 | 311 | 0.0 | 1.7 | 0.00 | 0.00 | 0.00 | 71 | 1021.6 |
| 20260830163014 | 77 | 302 | 0.9 | 1.7 | 0.00 | 0.00 | 0.00 | 71 | 1021.7 |
| 20260830162509 | 77 | 275 | 0.0 | 1.7 | 0.00 | 0.00 | 0.00 | 72 | 1021.6 |
| 20260830162007 | 77 | 237 | 0.0 | 1.7 | 0.00 | 0.00 | 0.00 | 74 | 1021.7 |
| 20260830161519 | 77 | 237 | 0.0 | 1.7 | 0.00 | 0.00 | 0.00 | 73 | 1021.7 |
| 20260830161010 | 77 | 296 | 0.0 | 1.7 | 0.00 | 0.00 | 0.00 | 72 | 1021.6 |
| 20260830160512 | 77 | 313 | 0.0 | 1.7 | 0.00 | 0.00 | 0.00 | 75 | 1021.6 |
| 20260830160029 | 77 | 313 | 0.0 | 1.7 | 0.00 | 0.00 | 0.00 | 74 | 1021.6 |
| 20260830155515 | 76 | 313 | 0.9 | 1.7 | 0.00 | 0.00 | 0.00 | 73 | 1021.6 |
| 20260830155016 | 77 | 329 | 0.0 | 1.7 | 0.00 | 0.00 | 0.00 | 73 | 1021.6 |
| 20260830154528 | 76 | 329 | 0.0 | 2.6 | 0.00 | 0.00 | 0.00 | 75 | 1021.7 |
| 20260830154016 | 77 | 280 | 0.9 | 2.6 | 0.00 | 0.00 | 0.00 | 74 | 1021.6 |
| 20260830153516 | 76 | 329 | 0.9 | 1.7 | 0.00 | 0.00 | 0.00 | 74 | 1021.6 |
| 20260830153032 | 76 | 323 | 0.0 | 1.7 | 0.00 | 0.00 | 0.00 | 75 | 1021.6 |
| 20260830152508 | 76 | 323 | 0.0 | 1.7 | 0.00 | 0.00 | 0.00 | 73 | 1021.5 |
| 20260830152007 | 76 | 317 | 0.9 | 1.7 | 0.00 | 0.00 | 0.00 | 73 | 1021.4 |
| 20260830151518 | 76 | 319 | 0.9 | 1.7 | 0.00 | 0.00 | 0.00 | 74 | 1021.3 |
| 20260830151011 | 76 | 296 | 0.9 | 2.6 | 0.00 | 0.00 | 0.00 | 73 | 1021.1 |
| 20260830150511 | 76 | 315 | 0.9 | 3.5 | 0.00 | 0.00 | 0.00 | 73 | 1021.0 |
| 20260830150023 | 77 | 232 | 0.9 | 3.5 | 0.00 | 0.00 | 0.00 | 73 | 1020.9 |
| 20260830145513 | 76 | 346 | 0.9 | 3.5 | 0.00 | 0.00 | 0.00 | 74 | 1020.7 |
| 20260830145015 | 76 | 260 | 1.7 | 3.5 | 0.00 | 0.00 | 0.00 | 74 | 1020.5 |
| 20260830144541 | 76 | 229 | 1.7 | 3.5 | 0.00 | 0.00 | 0.00 | 74 | 1020.4 |
| 20260830144014 | 76 | 195 | 0.9 | 3.5 | 0.00 | 0.00 | 0.00 | 75 | 1020.1 |
| 20260830143516 | 75 | 211 | 1.7 | 3.5 | 0.00 | 0.00 | 0.00 | 75 | 1020.0 |
| 20260830143031 | 75 | 210 | 1.7 | 3.5 | 0.00 | 0.00 | 0.00 | 75 | 1019.9 |
| 20260830142517 | 75 | 198 | 1.7 | 3.5 | 0.00 | 0.00 | 0.00 | 75 | 1019.8 |
| 20260830142019 | 75 | 223 | 1.7 | 2.6 | 0.00 | 0.00 | 0.00 | 76 | 1019.6 |
| 20260830141516 | 75 | 198 | 0.9 | 2.6 | 0.00 | 0.00 | 0.00 | 77 | 1019.6 |
| 20260830141007 | 75 | 196 | 0.9 | 3.5 | 0.00 | 0.00 | 0.00 | 75 | 1019.5 |
| 20260830140510 | 75 | 192 | 1.7 | 4.3 | 0.00 | 0.00 | 0.00 | 78 | 1019.5 |
| 20260830140027 | 74 | 178 | 1.7 | 3.5 | 0.00 | 0.00 | 0.00 | 78 | 1019.4 |
| 20260830135511 | 74 | 195 | 0.9 | 1.7 | 0.00 | 0.00 | 0.00 | 79 | 1019.5 |
| 20260830135013 | 73 | 218 | 0.9 | 1.7 | 0.00 | 0.00 | 0.00 | 79 | 1019.5 |
| 20260830134528 | 73 | 211 | 0.9 | 1.7 | 0.00 | 0.00 | 0.00 | 78 | 1019.5 |
| 20260830134014 | 73 | 222 | 0.9 | 1.7 | 0.00 | 0.00 | 0.00 | 79 | 1019.5 |
| 20260830133516 | 73 | 213 | 0.9 | 2.6 | 0.00 | 0.00 | 0.00 | 79 | 1019.5 |
| 20260830133034 | 72 | 215 | 0.9 | 2.6 | 0.00 | 0.00 | 0.00 | 79 | 1019.3 |
| 20260830132515 | 72 | 194 | 0.9 | 3.5 | 0.00 | 0.00 | 0.00 | 79 | 1019.4 |
| 20260830132015 | 72 | 198 | 0.9 | 3.5 | 0.00 | 0.00 | 0.00 | 79 | 1019.3 |
| 20260830131531 | 72 | 194 | 0.9 | 2.6 | 0.00 | 0.00 | 0.00 | 79 | 1019.3 |
| 20260830131017 | 72 | 207 | 0.9 | 3.5 | 0.00 | 0.00 | 0.00 | 78 | 1019.3 |
| 20260830130508 | 72 | 192 | 1.7 | 3.5 | 0.00 | 0.00 | 0.00 | 78 | 1019.2 |
| 20260830130018 | 72 | 259 | 1.7 | 2.6 | 0.00 | 0.00 | 0.00 | 79 | 1019.2 |
| 20260830125513 | 72 | 184 | 0.9 | 2.6 | 0.00 | 0.00 | 0.00 | 80 | 1019.1 |
| 20260830125016 | 71 | 183 | 0.0 | 1.7 | 0.00 | 0.00 | 0.00 | 81 | 1019.0 |
| 20260830124533 | 71 | 198 | 0.9 | 3.5 | 0.00 | 0.00 | 0.00 | 82 | 1019.1 |
| 20260830124016 | 70 | 159 | 1.7 | 3.5 | 0.00 | 0.00 | 0.00 | 83 | 1019.1 |
| 20260830123512 | 70 | 195 | 0.9 | 2.6 | 0.00 | 0.00 | 0.00 | 82 | 1019.2 |
| 20260830123030 | 69 | 167 | 0.9 | 1.7 | 0.00 | 0.00 | 0.00 | 82 | 1019.3 |
| 20260830122515 | 69 | 159 | 0.9 | 1.7 | 0.00 | 0.00 | 0.00 | 83 | 1019.3 |
| 20260830122016 | 69 | 159 | 0.9 | 1.7 | 0.00 | 0.00 | 0.00 | 83 | 1019.3 |
| 20260830121535 | 68 | 146 | 0.9 | 1.7 | 0.00 | 0.00 | 0.00 | 84 | 1019.3 |
| 20260830121017 | 68 | 148 | 0.9 | 1.7 | 0.00 | 0.00 | 0.00 | 84 | 1019.4 |
| 20260830120515 | 68 | 151 | 0.9 | 1.7 | 0.00 | 0.00 | 0.00 | 84 | 1019.4 |
| 20260830120030 | 67 | 155 | 0.9 | 0.9 | 0.00 | 0.00 | 0.00 | 84 | 1019.5 |
| 20260830115509 | 67 | 180 | 0.9 | 1.7 | 0.00 | 0.00 | 0.00 | 85 | 1019.5 |
| 20260830115009 | 67 | 203 | 0.9 | 1.7 | 0.00 | 0.00 | 0.00 | 85 | 1019.6 |
| 20260830114523 | 67 | 132 | 0.0 | 1.7 | 0.00 | 0.00 | 0.00 | 86 | 1019.6 |
| 20260830114010 | 67 | 132 | 0.9 | 1.7 | 0.00 | 0.00 | 0.00 | 86 | 1019.8 |
| 20260830113504 | 67 | 132 | 0.9 | 1.7 | 0.00 | 0.00 | 0.00 | 86 | 1019.7 |
| 20260830113004 | 67 | 131 | 0.9 | 1.7 | 0.00 | 0.00 | 0.00 | 86 | 1019.7 |
| 20260830112504 | 67 | 129 | 0.9 | 1.7 | 0.00 | 0.00 | 0.00 | 87 | 1019.7 |
| 20260830112004 | 67 | 121 | 0.0 | 0.9 | 0.00 | 0.00 | 0.00 | 88 | 1019.7 |
| 20260830111508 | 67 | 121 | 0.9 | 0.9 | 0.00 | 0.00 | 0.00 | 87 | 1019.6 |
| 20260830111006 | 67 | 121 | 0.0 | 0.9 | 0.00 | 0.00 | 0.00 | 87 | 1019.7 |
| 20260830110504 | 67 | 121 | 0.0 | 0.9 | 0.00 | 0.00 | 0.00 | 87 | 1019.7 |
| 20260830110012 | 67 | 121 | 0.9 | 0.9 | 0.00 | 0.00 | 0.00 | 87 | 1019.8 |
| 20260830105509 | 67 | 113 | 0.0 | 0.9 | 0.00 | 0.00 | 0.00 | 87 | 1019.8 |
| 20260830105010 | 67 | 113 | 0.0 | 0.9 | 0.00 | 0.00 | 0.00 | 87 | 1019.9 |
| 20260830104517 | 67 | 113 | 0.0 | 1.7 | 0.00 | 0.00 | 0.00 | 86 | 1019.9 |
| 20260830104013 | 67 | 113 | 0.9 | 1.7 | 0.00 | 0.00 | 0.00 | 85 | 1020.0 |
| 20260830103513 | 67 | 113 | 0.0 | 1.7 | 0.00 | 0.00 | 0.00 | 86 | 1020.0 |
| 20260830103032 | 67 | 113 | 0.9 | 1.7 | 0.00 | 0.00 | 0.00 | 86 | 1019.9 |
| 20260830102503 | 67 | 196 | 0.0 | 1.7 | 0.00 | 0.00 | 0.00 | 84 | 1019.9 |
| 20260830102003 | 67 | 196 | 0.0 | 1.7 | 0.00 | 0.00 | 0.00 | 83 | 1019.8 |
| 20260830101507 | 67 | 196 | 0.0 | 0.9 | 0.00 | 0.00 | 0.00 | 84 | 1019.9 |
| 20260830101005 | 68 | 196 | 0.0 | 0.9 | 0.00 | 0.00 | 0.00 | 82 | 1019.8 |
| 20260830100502 | 68 | 196 | 0.0 | 0.9 | 0.00 | 0.00 | 0.00 | 83 | 1019.7 |
| 20260830100011 | 68 | 196 | 0.0 | 0.9 | 0.00 | 0.00 | 0.00 | 82 | 1019.6 |
| 20260830095507 | 68 | 196 | 0.0 | 1.7 | 0.00 | 0.00 | 0.00 | 82 | 1019.5 |
| 20260830095008 | 68 | 196 | 0.9 | 1.7 | 0.00 | 0.00 | 0.00 | 80 | 1019.4 |
| 20260830094517 | 68 | 196 | 0.0 | 1.7 | 0.00 | 0.00 | 0.00 | 79 | 1019.5 |
| 20260830094012 | 69 | 196 | 0.0 | 1.7 | 0.00 | 0.00 | 0.00 | 79 | 1019.4 |
| 20260830093511 | 69 | 159 | 0.9 | 0.9 | 0.00 | 0.00 | 0.00 | 79 | 1019.3 |
| 20260830093036 | 68 | 159 | 0.0 | 1.7 | 0.00 | 0.00 | 0.00 | 79 | 1019.2 |
| 20260830092513 | 68 | 144 | 0.9 | 1.7 | 0.00 | 0.00 | 0.00 | 79 | 1019.2 |
| 20260830092016 | 68 | 137 | 0.9 | 1.7 | 0.00 | 0.00 | 0.00 | 79 | 1019.2 |
| 20260830091503 | 68 | 148 | 0.9 | 1.7 | 0.00 | 0.00 | 0.00 | 79 | 1019.2 |
| 20260830091003 | 68 | 163 | 0.9 | 1.7 | 0.00 | 0.00 | 0.00 | 79 | 1019.1 |
| 20260830090504 | 68 | 155 | 0.9 | 1.7 | 0.00 | 0.00 | 0.00 | 79 | 1019.2 |
| 20260830090012 | 68 | 138 | 0.9 | 1.7 | 0.00 | 0.00 | 0.00 | 79 | 1019.2 |
| 20260830085506 | 68 | 156 | 0.9 | 2.6 | 0.00 | 0.00 | 0.00 | 79 | 1019.1 |
| 20260830085008 | 68 | 146 | 0.9 | 2.6 | 0.00 | 0.00 | 0.00 | 79 | 1019.2 |
| 20260830084515 | 68 | 143 | 1.7 | 1.7 | 0.00 | 0.00 | 0.00 | 80 | 1019.3 |
| 20260830084008 | 68 | 146 | 0.9 | 1.7 | 0.00 | 0.00 | 0.00 | 80 | 1019.3 |
| 20260830083511 | 68 | 146 | 0.0 | 0.9 | 0.00 | 0.00 | 0.00 | 80 | 1019.4 |
| 20260830083021 | 68 | 142 | 0.9 | 0.9 | 0.00 | 0.00 | 0.00 | 80 | 1019.4 |
| 20260830082512 | 68 | 157 | 0.9 | 0.9 | 0.00 | 0.00 | 0.00 | 80 | 1019.3 |
| 20260830082011 | 68 | 192 | 0.9 | 1.7 | 0.00 | 0.00 | 0.00 | 80 | 1019.4 |
| 20260830081525 | 68 | 192 | 0.9 | 1.7 | 0.00 | 0.00 | 0.00 | 80 | 1019.4 |
| 20260830081015 | 68 | 186 | 0.0 | 0.9 | 0.00 | 0.00 | 0.00 | 80 | 1019.3 |
| 20260830080502 | 68 | 186 | 0.0 | 0.9 | 0.00 | 0.00 | 0.00 | 80 | 1019.4 |
| 20260830080006 | 68 | 158 | 0.9 | 1.7 | 0.00 | 0.00 | 0.00 | 80 | 1019.4 |
| 20260830075506 | 68 | 157 | 0.9 | 1.7 | 0.00 | 0.00 | 0.00 | 80 | 1019.4 |
| 20260830075004 | 68 | 144 | 0.9 | 1.7 | 0.00 | 0.00 | 0.00 | 80 | 1019.5 |
| 20260830074512 | 68 | 161 | 0.9 | 1.7 | 0.00 | 0.00 | 0.00 | 80 | 1019.7 |
| 20260830074008 | 68 | 153 | 0.9 | 1.7 | 0.00 | 0.00 | 0.00 | 80 | 1019.7 |
| 20260830073507 | 68 | 153 | 0.9 | 1.7 | 0.00 | 0.00 | 0.00 | 80 | 1019.6 |
| 20260830073022 | 68 | 155 | 0.9 | 2.6 | 0.00 | 0.00 | 0.00 | 81 | 1019.5 |